Find Starlink 31218

NORAD ID: 58895 Int'l Des: 2024-020 Owner: SPXS Country: US Constellation: starlink operational
LEOCIRCULAR

Current View

Loading 3D Globe...

About Starlink 31218

Starlink 31218 (NORAD 58895) is a starlink constellation satellite (v2 mini) launched Jan 29, 2024 by SPXS of US. It operates in LEO, CIRCULAR orbit with a mass of 730.00 kg.

About Starlink 31218

Description loading...

Upcoming Passes

Passes for default location (London). Set your location on the main map for personalized predictions.

Altitude History

Loading altitude history...

Two-Line Element Set

1 58895U 24020V 26173.36460378 -.00000044 00000-0 10352-4 0 9993
2 58895 53.1587 195.7675 0001011 87.1206 272.9911 15.31704334134104
Epoch: Jun 22, 2026 • Age: 21 hours

Current Status

Altitude 475.7 km
Velocity 7.63 km/s
Sub-Earth Point 49.15°N, 101.36°W
Launch Date Jan 29, 2024
Age 2.3 years
Type internet

Technical Details

Classification Payload
Mass 730.00 kg
Dry Mass 700.00 kg
Total Mass 730.00 kg
Length 0.30 m
Diameter 4.10 m
Span 29.00 m
Shape Box + pan
Manufacturer SPXS
Bus Type Starlink V2M
Phase Status In Orbit
Owner/State SPXS/US

Most Searched